DELTA 1 DEB, 21498

Orbit data source: Space-Track

DELTA 1 DEB, 21498 is space debris in SSO originally from a launch on Thu, 12 Jun 1975 UTC launched from the Air Force Western Test Range (AFWTR). Debris objects in space refer to the collection of defunct objects orbiting the Earth. Examples of debris include non-operational satellites, rocket bodies, and fragments generated from explosions, collisions, or faulty payload assembly.

Loading next visibility...
Identifier
21498, 1975-052FT
Orbit
SSO
Country
Flag of USUS
Related business
Manufacturer
Unknown
Mission
Spacecraft
Bus & Motor
Unknown
Mass
Unknown
Launch date (UTC)
1975-06-12 (51 years ago)
Launch vehicle
Unknown
Launch site
Air Force Western Test Range (AFWTR)
Object type
Payload
Rocket body
Debris
Shape & HBR
Unknown shape, 0.1 m
Radar Cross Section
Medium (>0.1 m² and <1 m²)

Expand to show TLE details & history
Last TLE update: 2 days ago

TLE from 2 days ago
0 DELTA 1 DEB
1 21498U 75052FT  26171.22109024  .00000105  00000-0  42700-3 0  9992
2 21498  99.7102  87.1737 0265316  54.4134  99.0892 12.95331270656536
Epoch: 2026-06-20T05:18Z
TLE epoch observation values (Epoch: 2026-06-20T05:18:22.196Z)
Latitude
23.17492°
Longitude
-76.67781°
Altitude
1,320.397 km
Speed
7.181 km/s
True Right ascension
18h 05m 24s
True Declination
23° 03' 35"
Sunlit
Object was in full shadow at epoch
Visualization orbit readout
Latitude
Unknown
Longitude
Unknown
Altitude
Unknown
Speed
Unknown
Apparent Right ascension
Unknown
Apparent Declination
Unknown
Sunlit
N/A
Visualization observer readout
Local Sidereal Time
09:16:15
Azimuth
Unknown
Elevation
Unknown
Doppler factor
Unknown
Orbital elements
Apogee altitude
1,480.935 km
Perigee altitude
1,074.686 km
Semi-major axis
7,655.947 km
Eccentricity
0.02653
Inclination
99.7102°
RAAN
87.1737°
Arg. of periapsis
54.4134°
True anomaly
102.07432°
Mean anomaly
99.0892°
Eccentric anomaly
100.58349°
Mean motion
3.24 °/min
Orbital period
111.11 mins
BSTAR
0.000427
Loading maneuver chart data...
Computing Atmospheric mass density...
Loading historical data...
Loading historical data...
Loading historical data...
Loading historical data...
Loading historical data...
Loading historical data...
Loading historical data...

Documentation

Showing up to 5 results
|